COSMOS 2251 DEB, 33825

Orbit data source: Space-Track

COSMOS 2251 DEB, 33825 is space debris in LEO originally from a launch on Wed, 16 Jun 1993 UTC launched from the Plesetsk Missile And Space Complex (PKMTR). The debris from Iridium 33, an American commercial communications satellite, has been tracked extensively since its accidental collision with the defunct Russian satellite Cosmos 2251 in 2009. This event, occurring at high speed in low Earth orbit (LEO), generated thousands of pieces of space debris, significantly increasing the risk of further collisions. The Iridium 33 debris cloud has impacted space traffic management and orbital debris mitigation strategies, making it a subject of ongoing study in space situational awareness.

Loading next visibility...
Identifier
33825, 1993-036BS
Orbit
LEO
Country
Flag of CISCIS
Related business
Manufacturer
Unknown
Mission
Spacecraft
Bus & Motor
Unknown
Mass
Unknown
Launch date (UTC)
1993-06-16 (33 years ago)
Launch vehicle
Unknown
Launch site
Plesetsk Missile And Space Complex (PKMTR)
Object type
Payload
Rocket body
Debris
Shape & HBR
Unknown shape, 0.2 m
Radar Cross Section
Medium (>0.1 m² and <1 m²)

Expand to show TLE details & history
Last TLE update: 12 hours ago

TLE from 12 hours ago
0 COSMOS 2251 DEB
1 33825U 93036BS  26165.34488722  .00003549  00000-0  53292-3 0  9995
2 33825  73.9835  29.7805 0076851 312.2967 161.2123 14.72952569915805
Epoch: 2026-06-14T08:16Z
TLE epoch observation values (Epoch: 2026-06-14T08:16:38.255Z)
Latitude
61.68782°
Longitude
150.96892°
Altitude
713.059 km
Speed
7.478 km/s
True Right ascension
11h 51m 06s
True Declination
61° 32' 35"
Sunlit
Object was in daylight at epoch
Visualization orbit readout
Latitude
Unknown
Longitude
Unknown
Altitude
Unknown
Speed
Unknown
Apparent Right ascension
Unknown
Apparent Declination
Unknown
Sunlit
N/A
Visualization observer readout
Local Sidereal Time
06:49:05
Azimuth
Unknown
Elevation
Unknown
Doppler factor
Unknown
Orbital elements
Apogee altitude
703.252 km
Perigee altitude
595.24 km
Semi-major axis
7,027.383 km
Eccentricity
0.00769
Inclination
73.9835°
RAAN
29.7805°
Arg. of periapsis
312.2967°
True anomaly
161.49337°
Mean anomaly
161.2123°
Eccentric anomaly
161.35309°
Mean motion
3.68428 °/min
Orbital period
97.71 mins
BSTAR
0.00053292

Documentation

Showing up to 5 results
|